Location: Arcizac
(43.0933°N, 0.0112°E)
Time: 22:32:50
(UTC+00:00)

Meteor 2-13 Rocket - Pass Details

Date: 14 December 2019
Orbit: 937 x 957 km, 82.5° (Epoch: 24 January)

Event Time Altitude Azimuth Distance (km) Brightness Sun altitude
Rises 18:34:32 0° 191° (S) 3,582 7.7 -22.7°
Reaches altitude 10° 18:37:00 10° 192° (SSW) 2,644 7.0 -23.1°
Maximum altitude 18:43:02 77° 279° (W) 969 4.5 -24.2°
Drops below altitude 10° 18:49:10 10° 6° (N) 2,674 6.6 -25.3°
Enters shadow 18:50:07 - 6° (N) 3,032 6.9 -25.5°
